Regional Weather Roundup
Issued by NWS Albany, NY

Home | Current Version | Previous Version | Text Only | Print | Product List | Glossary On
Versions: 1 2 3 4 5 6 7 8 9 10 11 12 13 14 15 16 17 18 19 20 21 22 23 24 25 26 27 28 29 30 31 32 33 34 35 36 37 38 39 40 41 42 43 44 45 46 47 48 49 50
000
ASUS41 KALY 181810
RWRALY

NEW YORK STATE HOURLY WEATHER ROUNDUP
NATIONAL WEATHER SERVICE ALBANY NY
200 PM EDT THU SEP 18 2014

NOTE: "FAIR" INDICATES FEW OR NO CLOUDS BELOW 12,000 FEET WITH NO
SIGNIFICANT WEATHER AND/OR NO OBSTRUCTIONS TO VISIBILITY.

NYZ032-033-038>043-046>054-057>066-NYZ062>081-181900-
EAST


CITY           SKY/WX    TMP DP  RH WIND       PRES   REMARKS
ALBANY         PTSUNNY   69  51  52 SW7       30.00F
GLENS FALLS    CLOUDY    58  49  72 NE14      30.03S
POUGHKEEPSIE   MOSUNNY   72  46  39 CALM      29.98F
NEWBURGH       PTSUNNY   72  50  46 CALM      30.01F
MONTGOMERY       N/A     74  44  34 MISG      29.98F
WHITE PLAINS   MOSUNNY   74  44  34 NW8       29.98F
ISLIP          MOSUNNY   74  45  35 NW10      29.97F
NEW YORK CITY  MOSUNNY   74  46  36 NW6       29.98F
CENTRAL PARK   PTSUNNY   73  47  39 CALM      30.01F
$$

NYZ005>009-017-018-044>046-055-056-181900-
CENTRAL


CITY           SKY/WX    TMP DP  RH WIND       PRES   REMARKS
FULTON         PTSUNNY   57  48  72 N12       30.10R
SYRACUSE       CLOUDY    62  51  67 NW12      30.08S
ROME           PTSUNNY   60  51  72 NE13G21   30.06S
ELMIRA         PTSUNNY   66  53  63 N10       30.05S
BINGHAMTON     MOSUNNY   65  49  56 NW8       30.05S
MONTICELLO     PTSUNNY   64  43  45 N12       30.04F
$$

NYZ026>034-041>043-181900-
NORTH


CITY           SKY/WX    TMP DP  RH WIND       PRES   REMARKS
WATERTOWN      MOSUNNY   57  41  55 NE12      30.11S
FORT DRUM      NOT AVBL
MASSENA        MOSUNNY   54  36  50 NW7       30.13S
SARANAC LAKE   CLOUDY    46  40  79 N6        30.07R
PLATTSBURGH    CLOUDY    51  42  71 N10       30.10S
$$

NYZ001>004-010>016-019>021-181900-
WEST


CITY           SKY/WX    TMP DP  RH WIND       PRES   REMARKS
NIAGARA FALLS  DRIZZLE   52  49  89 NE13      30.14R
BUFFALO        CLOUDY    54  48  80 N10       30.13R
DUNKIRK        CLOUDY    58  53  84 N10       30.12R
JAMESTOWN      MOSUNNY   61  48  63 W7G17     30.11S
WELLSVILLE     PTSUNNY   60  45  57 W7        30.10S
ROCHESTER      CLOUDY    53  49  86 NE12      30.13R
PENN YAN       CLOUDY    58  52  80 VRB6      30.09R
$$

             KEY
       WCI = WIND CHILL INDEX
       VSB = VISIBILITY
       HX  = HEAT INDEX
$$


USA.gov is the U.S. government's official web portal to all federal, state and local government web resources and services.